AO-07 1 07530U 74089B 17334.55702986 -.00000032 00000-0 77634-4 0 9990 2 07530 101.6567 300.1074 0012254 001.2411 110.3082 12.53630054969470 UO-11 1 14781U 84021B 17334.56237681 .00000145 00000-0 24064-4 0 9992 2 14781 097.6766 013.9547 0008956 024.0777 336.0854 14.82960641794008 LO-19 1 20442U 90005G 17334.40930249 .00000004 00000-0 17439-4 0 9997 2 20442 098.5906 269.3324 0012221 022.1327 338.0382 14.32879672455364 HUBBLE 1 20580U 90037B 17334.51204657 .00000672 00000-0 30366-4 0 9999 2 20580 028.4708 348.3575 0002817 157.3885 336.3476 15.08934146315345 MET-2/21 1 22782U 93055A 17334.33483688 .00000047 00000-0 28882-4 0 9997 2 22782 82.5504 251.7216 0021767 328.1776 148.3561 13.83806308224677 AO-27 1 22825U 93061C 17334.51003501 .00000007 00000-0 20404-4 0 9992 2 22825 098.8360 302.3258 0007944 199.6400 160.4476 14.30015003260903 IO-26 1 22826U 93061D 17334.50282582 .00000013 00000-0 22790-4 0 9997 2 22826 098.8301 302.3807 0008641 189.7353 170.3662 14.30345293261108 FO-29 1 24278U 96046B 17334.61324560 -.00000021 00000-0 17703-4 0 9999 2 24278 098.5351 195.5136 0349334 266.0353 090.0792 13.53080375051139 NOAA-15 1 25338U 98030A 17334.59998637 .00000055 00000-0 41753-4 0 9999 2 25338 098.7783 345.8157 0011593 084.5313 275.7189 14.25828391016460 GO-32 1 25397U 98043D 17334.41392461 -.00000009 00000-0 15277-4 0 9994 2 25397 098.6280 273.3712 0000628 175.5930 184.5254 14.23634876007226 ISS 1 25544U 98067A 17334.91577597 -.00018328 00000-0 -27114-3 0 9990 2 25544 51.6426 287.1489 0003466 183.7835 283.1860 15.54033939 87688 NO-44 1 26931U 01043C 17334.51199984 -.00000007 00000-0 28992-4 0 9995 2 26931 067.0522 022.0482 0005283 266.0057 094.0441 14.30485265844069 SO-50 1 27607U 02058C 17334.47967434 .00000085 00000-0 32838-4 0 9990 2 27607 064.5556 337.3751 0040801 021.1335 339.1441 14.75396663803514 CO-55 1 27844U 03031E 17334.54773606 .00000084 00000-0 57499-4 0 9998 2 27844 098.6891 341.1304 0009060 221.8207 138.2279 14.22078797747929 CO-57 1 27848U 03031J 17334.59284657 .00000075 00000-0 54175-4 0 9998 2 27848 098.6981 341.5016 0008831 232.3429 127.6948 14.21687937747819 RS-22 1 27939U 03042A 17334.86254729 .00000153 00000-0 35930-4 0 9993 2 27939 97.9624 114.4835 0014082 60.8900 56.4018 14.66634697757749 NOAA-18 1 28654U 05018A 17334.60665996 .00000006 00000-0 28762-4 0 9999 2 28654 099.1691 000.7820 0013755 327.9858 032.0476 14.12358992645654 CO-58 1 28895U 05043F 17334.38922105 .00000218 00000-0 50799-4 0 9997 2 28895 097.8828 129.2292 0016333 342.3572 017.7062 14.63479402644563 Falconsat-3 1 30776U 07006E 17334.57948056 .00004116 00000-0 12545-3 0 9990 2 30776 035.4355 090.1454 0002723 015.5453 344.5356 15.33512580593808 CO-65 1 32785U 08021C 17334.54776679 .00000357 00000-0 44520-4 0 9999 2 32785 097.5564 351.1383 0012581 343.6172 016.4637 14.88016834519566 AAUSAT2 1 32788U 08021F 17334.60377955 .00000402 00000-0 42700-4 0 9992 2 32788 097.5425 004.1858 0010549 297.1370 062.8774 14.94130606520427 DO-64 1 32789U 08021G 17334.22380048 .00002075 00000-0 14825-3 0 9992 2 32789 097.5406 028.8372 0011172 253.7466 106.2532 15.05539004521747 CO-66 1 32791U 08021J 17334.55468009 .00000574 00000-0 64322-4 0 9995 2 32791 097.5503 356.0041 0012480 325.0902 034.9497 14.90404297519841 RS-30 1 32953U 08025A 17334.80603282 .00000031 00000-0 15566-3 0 9994 2 32953 82.5001 136.0574 0018492 282.2537 77.6472 12.43080397432121 PRISM 1 33493U 09002B 17334.73135202 .00001572 00000-0 14565-3 0 9993 2 33493 98.1472 224.0027 0013659 253.2146 106.7570 14.95982993480679 NOAA-19 1 33591U 09005A 17334.55434054 .00000119 00000-0 89956-4 0 9995 2 33591 99.1160 303.9272 0014185 160.9411 199.2293 14.12233227454146 TISAT-1 1 36799U 10035E 17334.29820984 .00000744 00000-0 81918-4 0 9999 2 36799 98.0816 100.6177 0013335 137.7348 222.4899 14.90620562400520 JUGNU 1 37839U 11058B 17331.89641198 .00000311 00000-0 23997-4 0 9995 2 37839 19.9597 177.8229 0018926 187.8145 295.1682 14.12602413316870 SRMSAT 1 37841U 11058D 17334.87043789 .00000329 00000-0 35850-4 0 9991 2 37841 19.9707 204.9053 0011937 112.5890 315.2193 14.10593238316840 AO-71 1 37854U 11061E 17334.45587479 .00002582 00000-0 14288-3 0 9996 2 37854 101.7019 292.6706 0165273 302.6335 055.9020 15.04871936331480 HRBE 1 37855U 11061F 17334.51371308 .00002775 00000-0 15014-3 0 9998 2 37855 101.7139 290.4496 0178440 309.9928 048.5732 15.03832986331315 ALMASAT-1 1 38078U 12006B 17334.89587013 .00023151 37455-5 24004-3 0 9998 2 38078 69.4357 41.2192 0276622 43.3678 75.2659 15.30328049310213 HORYU-2 1 38340U 12025D 17334.58344936 .00000331 00000-0 56814-4 0 9993 2 38340 098.3762 344.3857 0012691 120.1903 240.0564 14.75456181287419 RS-40 1 38735U 12041C 17334.80031117 .00000019 00000-0 63389-4 0 9996 2 38735 82.4775 220.2965 0017580 27.4587 332.7418 12.42575434242396 BEESAT-3 1 39134U 13015E 17334.61891985 .00002447 00000-0 12622-3 0 9998 2 39134 064.8660 048.9543 0030813 239.2450 120.5642 15.18556925254362 BEESAT-2 1 39136U 13015G 17334.61938106 .00001838 00000-0 10528-3 0 9993 2 39136 064.8705 062.0507 0032105 259.9315 099.8188 15.15674488254103 ZACUBE-1 1 39417U 13066B 17334.66322765 .00000332 00000-0 48133-4 0 9996 2 39417 97.6106 8.6643 0060697 85.5001 275.3143 14.80830801217412 TRITON-1 1 39427U 13066M 17334.55934238 .00000274 00000-0 51778-4 0 9993 2 39427 097.6363 338.7564 0114314 175.0694 185.1667 14.67571254215254 GOMX-1 1 39430U 13066Q 17334.90230757 .00000229 00000-0 50916-4 0 9994 2 39430 97.6770 321.3347 0150531 236.3073 122.3700 14.58982473214237 LO-74 1 39440U 13066AA 17334.59496226 .00000321 00000-0 51592-4 0 9999 2 39440 097.6147 356.5144 0081948 119.9427 240.9953 14.75568309215432 AO-73 1 39444U 13066AE 17334.55933513 .00000417 00000-0 57838-4 0 9999 2 39444 097.6121 009.8349 0059814 082.0927 278.7070 14.81588303215651 SPROUT 1 39770U 14029E 17334.84526305 .00001011 00000-0 12021-3 0 9995 2 39770 97.8758 72.6500 0010137 134.3159 225.8891 14.86559489190891 DUCHIFAT-1 1 40021U 14033M 17334.71090162 .00000725 00000-0 80739-4 0 9997 2 40021 97.9156 248.0789 0014254 109.9858 250.2895 14.90118094187396 NANOSATCBR1 1 40024U 14033Q 17334.72271427 .00000538 00000-0 62481-4 0 9992 2 40024 97.9104 246.7041 0013532 111.4565 248.8097 14.89409707187332 EO-79 1 40025U 14033R 17334.59111156 .00000411 00000-0 50137-4 0 9995 2 40025 097.9076 245.3562 0013732 115.1814 245.0828 14.88581091186734 DTUSAT-2 1 40030U 14033W 17334.30264470 .00000437 00000-0 53366-4 0 9993 2 40030 97.9034 244.0038 0013226 111.0760 249.1872 14.88195941187157 EO-80 1 40032U 14033Y 17334.41931316 .00000408 00000-0 50382-4 0 9990 2 40032 097.9041 244.1249 0013202 111.1747 249.0881 14.88132067186644 ANTELSAT 1 40034U 14033AA 17334.62738509 .00000329 00000-0 56435-4 0 9991 2 40034 97.8356 213.1857 0060104 116.7436 243.9941 14.73816318185443 VELOX-1 1 40057U 14034E 17334.79491290 .00000486 00000-0 76126-4 0 9991 2 40057 98.1948 77.5945 0009790 239.6444 120.3799 14.77285837184355 DAURIA DX 1 1 40071U 14037C 17334.80258770 .00000207 00000-0 34048-4 0 9994 2 40071 98.3528 92.6475 0007296 233.8444 126.2092 14.81095703183635 UKUBE-1 1 40074U 14037F 17334.74863041 .00000509 00000-0 68825-4 0 9998 2 40074 98.3638 97.3377 0003571 223.7468 136.3466 14.83664870183871 HODOYOSHI-1 1 40299U 14070B 17334.74778130 .00001028 00000-0 47156-4 0 9999 2 40299 97.3939 54.9032 0011791 223.0757 251.4054 15.22621143170280 CHUBUSAT-1 1 40300U 14070C 17334.80454307 .00001134 00000-0 53649-4 0 9998 2 40300 97.3836 51.5756 0018845 235.8871 272.8524 15.21259536170113 QSAT-EOS 1 40301U 14070D 17334.82722236 .00002481 00000-0 10434-3 0 9990 2 40301 97.3777 52.1502 0025692 229.2052 249.9076 15.24056277170207 FIREBIRD FU3 1 40377U 15003B 17334.82166396 .00003326 00000-0 14077-3 0 9995 2 40377 99.1094 192.0819 0133593 169.4108 190.9984 15.16392895156256 FIREBIRD FU4 1 40378U 15003C 17334.81197264 .00003189 00000-0 13502-3 0 9992 2 40378 99.1096 192.1181 0133789 169.3430 191.0684 15.16406345156251 GRIFEX 1 40379U 15003D 17334.81210355 .00002676 00000-0 12130-3 0 9996 2 40379 99.1131 189.1832 0140077 179.1175 181.0326 15.13723003156087 NO-84 1 40654U 15025D 17334.22362242 .00009841 00000-0 17408-3 0 01541 2 40654 054.9942 212.8072 0166168 325.6178 033.4188 15.37247367025218 NO-83 1 40655U 15025E 17334.17816449 .00017728 00000-0 22975-3 0 01772 2 40655 054.9788 176.1347 0127003 347.7391 012.0545 15.49942468025353 DEORBITSAIL 1 40719U 15032E 17334.60184787 .00000596 00000-0 93246-4 0 9999 2 40719 097.9627 226.1148 0016094 332.3379 027.6973 14.76257299128879 NUDT-PHONESAT 1 40900U 15049B 17334.80796919 .00003165 00000-0 14795-3 0 9993 2 40900 97.4426 340.4730 0013993 10.6701 349.4828 15.20438943121762 XW-2A 1 40903U 15049E 17334.81414243 .00002843 00000-0 73914-4 0 9995 2 40903 97.4073 2.5318 0015395 31.9664 328.2512 15.39690816123275 XW-2C 1 40906U 15049H 17334.84911756 .00001050 00000-0 59824-4 0 9995 2 40906 97.4572 337.0671 0015201 3.7574 356.3770 15.14897547121463 XW-2D 1 40907U 15049J 17334.81994351 .00001112 00000-0 62920-4 0 9995 2 40907 97.4543 336.7645 0014532 2.1839 357.9454 15.15026691121463 LILACSAT-2 1 40908U 15049K 17334.86005467 .00000567 00000-0 35386-4 0 9991 2 40908 97.4649 336.4070 0016091 1.0422 359.0840 15.13335854121372 XW-2F 1 40910U 15049M 17334.84944919 .00001653 00000-0 89127-4 0 9995 2 40910 97.4556 337.7540 0015206 358.5684 1.5503 15.16077082121391 XW-2B 1 40911U 15049N 17334.89668361 .00001089 00000-0 61776-4 0 9998 2 40911 97.4583 337.2962 0014444 2.4203 357.7097 15.14979163121371 DCBB 1 40912U 15049P 17334.81260728 .00001998 00000-0 10066-3 0 9990 2 40912 97.4514 340.0272 0015248 349.2705 135.0439 15.18242024121565 TW-1C 1 40926U 15051B 17334.74907934 .00009608 00000-0 19914-3 0 9994 2 40926 97.2113 13.1600 0008938 287.6219 166.0521 15.45906196122620 TW-1A 1 40928U 15051D 17334.78221906 .00003286 00000-0 91352-4 0 9991 2 40928 97.2104 7.5770 0011302 326.5963 123.2024 15.37508204122289 IO-86 1 40931U 15052B 17334.00305031 .00000765 00000-0 17556-4 0 9996 2 40931 5.9959 130.3973 0013286 68.1612 292.0025 14.76557552117518 GomX-3 1 40949U 98067HA 16292.18357804 .08527750 12374-4 77882-3 0 9992 2 40949 51.6055 106.7696 0006699 286.1344 73.8944 16.38002265 59645 LQSat 1 40958U 15057A 17334.81333849 .00000078 00000-0 19989-4 0 9996 2 40958 97.9632 47.0885 0016723 250.9594 108.9794 14.73004119115644 AO-85 1 40967U 15058D 17333.47991085 .00000229 00000-0 44518-4 0 01659 2 40967 064.7779 077.4197 0184716 018.3944 342.3672 14.75581611024180 ATHENOXAT-1 1 41168U 15077C 17334.46462870 .00002694 00000-0 11292-3 0 9994 2 41168 014.9845 034.1834 0012262 159.6529 306.9831 15.12245111108244 ChubuSat-2 1 41338U 16012B 17334.80235448 .00000442 00000-0 27941-4 0 9998 2 41338 31.0025 133.9770 0014058 269.1430 90.7595 14.99879079 98022 ChubuSat-3 1 41339U 16012C 17334.50864286 .00000413 00000-0 25515-4 0 9997 2 41339 031.0075 134.7311 0014034 272.6308 087.2727 15.00073506097969 Horyu-4 1 41340U 16012D 17334.47213557 .00000693 00000-0 46473-4 0 9990 2 41340 31.0044 131.2659 0014343 282.8926 77.0107 15.00818161 98016 OUFTI-1 1 41458U 16025C 17334.68927139 .00002557 00000-0 13722-3 0 9996 2 41458 98.1645 21.7169 0172954 92.9020 269.2015 15.03991665 87592 e-st@r-II 1 41459U 16025D 17334.73057244 .00001890 00000-0 10259-3 0 9995 2 41459 98.1676 21.6718 0174686 93.2484 268.8710 15.03783277 87593 AAUSAT4 1 41460U 16025E 17334.88160593 .00003482 00000-0 18478-3 0 9995 2 41460 98.1600 22.0642 0165739 90.1700 271.8499 15.04963890 87656 NODES 1 1 41477U 98067HX 17262.38431888 .17021661 12538-4 46079-3 0 9990 2 41477 51.6074 225.8859 0003017 249.6794 110.5489 16.45625800 77086 NODES 2 1 41478U 98067HY 17266.27255257 .13534231 12598-4 22876-3 0 9990 2 41478 51.6086 206.1528 0005980 262.1280 97.9071 16.47641774 77698 LO-87 1 41557U 16033B 17334.81402224 .00002246 00000-0 85345-4 0 9999 2 41557 97.4529 54.2939 0015212 134.7514 225.4966 15.27770216 83865 NuSat2 1 41558U 16033C 17334.79994032 .00002281 00000-0 87107-4 0 9997 2 41558 97.4557 54.3515 0014662 133.4793 226.7667 15.27598234 83850 Lapan A3 1 41603U 16040E 17334.80329275 .00000141 00000-0 98674-5 0 9994 2 41603 97.4409 34.6056 0012480 207.4191 292.0094 15.19472551 79958 Swayam 1 41607U 16040J 17334.42847493 .00002330 00000-0 10622-3 0 9990 2 41607 097.4417 034.9585 0013275 209.2292 150.8202 15.21580143079879 Pratham 1 41783U 16059A 17334.23622180 .00000088 00000-0 26612-4 0 9993 2 41783 098.1470 033.7095 0033555 002.3946 357.7410 14.62883316062878 AlSat 1N 1 41789U 16059G 17334.77032057 .00000151 00000-0 37782-4 0 9997 2 41789 98.1473 35.0629 0028340 354.8466 5.2426 14.64105954 62984 ScatSat 1 41790U 16059H 17334.55554068 .00000040 00000-0 21464-4 0 9993 2 41790 098.2895 020.6392 0018000 344.7985 015.2667 14.50851075062387 TY-1 1 41844U 16066D 17334.84998067 .00001920 00000-0 85256-4 0 9991 2 41844 97.4063 339.5507 0016773 19.8320 102.0507 15.22650688 58697 CAS-2T 1 41845U 16066E 17334.71915324 .00000179 00000-0 36732-4 0 9993 2 41845 98.7697 354.2729 0367541 113.8559 250.1598 14.37833435 55427 Pegasus-1 1 41846U 16066F 17334.85312013 .00000421 00000-0 73466-4 0 9990 2 41846 98.7719 354.0744 0369735 115.3346 248.6613 14.37200006 55417 STARS-C 1 41895U 98067KR 17334.32655230 .00093169 00000-0 51896-3 0 9991 2 41895 51.6350 268.3423 0004598 142.6776 217.4545 15.78666628 54053 Tancredo 1 1 41931U 98067KT 17290.98270503 .14164078 12479-4 76733-3 0 9998 2 41931 51.6104 115.9004 0006182 280.1451 79.8879 16.42240901 42996 TO-89 1 41932U 98067KU 17334.29308312 .00025003 00000-0 24384-3 0 9999 2 41932 51.6388 277.2457 0005077 146.8201 213.3114 15.66046512 49506 AOBA-V3LOX3 1 41935U 98067KX 17334.46931642 .00029716 00000-0 27474-3 0 9997 2 41935 051.6381 275.4078 0004625 145.9537 214.1756 15.67276373049648 OSNSAT 1 41939U 98067KZ 17334.17820865 .00155355 00000-0 56099-3 0 9997 2 41939 51.6321 263.5383 0007723 143.0490 217.1048 15.87619346 49024 EO-88 1 42017U 17008BX 17334.55896698 .00002350 00000-0 10064-3 0 9998 2 42017 097.4763 035.5814 0006605 012.7599 347.3804 15.23780867043810 HAVELSAT 1 42700U 98067LH 17334.41293470 .00024620 00000-0 27879-3 0 9991 2 42700 51.6383 284.0224 0003913 205.7364 154.3436 15.62257082 30867 SOMP2 1 42701U 98067LJ 17334.31686632 .00022428 00000-0 25918-3 0 9993 2 42701 51.6379 284.8823 0003909 205.4271 154.6531 15.61791058 30836 Columbia 1 42702U 98067LK 17334.67812521 .00097533 00000-0 68083-3 0 9990 2 42702 51.6339 277.5046 0004481 150.7230 209.4021 15.73507372 30898 PHOENIX 1 42706U 98067LP 17334.43148778 .00018773 00000-0 21762-3 0 9996 2 42706 51.6382 284.1495 0001866 120.6208 239.4970 15.61842066 30779 X-CubeSat 1 42707U 98067LQ 17334.29454020 .00025108 00000-0 28430-3 0 9990 2 42707 51.6366 284.7214 0002019 120.3863 239.7331 15.62250675 30743 qbee 1 42708U 98067LR 17334.49679131 .00022939 00000-0 26262-3 0 9995 2 42708 051.6375 283.8240 0001980 123.2447 236.8737 15.62023491030730 ZA-AeroSat 1 42713U 98067LU 17334.44291543 .00019575 00000-0 23566-3 0 9999 2 42713 51.6379 284.9723 0003209 123.1213 237.0089 15.60821885 30424 LINK 1 42714U 98067LV 17334.32065708 .00034041 00000-0 35922-3 0 9993 2 42714 51.6359 284.1385 0003719 117.5713 242.5660 15.63885667 30536 UPSat 1 42716U 98067LX 17334.38089449 .00029541 00000-0 31947-3 0 9991 2 42716 51.6377 283.8073 0002356 190.3403 169.7544 15.63338788 30560 SpaceCube 1 42717U 98067LY 17334.32147621 .00023007 00000-0 26452-3 0 9999 2 42717 51.6377 284.9092 0002485 197.3630 162.7279 15.61909591 29780 Hoopoe 1 42718U 98067LZ 17334.47848651 .00026979 00000-0 30024-3 0 9998 2 42718 51.6378 283.7077 0002477 191.0703 169.0237 15.62654227 29817 Challenger 1 42721U 98067MA 17334.33974849 .00040995 00000-0 41132-3 0 9992 2 42721 51.6363 283.5138 0005179 176.8682 183.2346 15.65066879 29508 NJUST-1 1 42722U 98067MB 17334.79976726 .00019131 00000-0 23381-3 0 9993 2 42722 51.6384 283.6029 0005772 194.2982 165.7849 15.60432749 29543 UNSW-EC0 1 42723U 98067MC 17334.32117939 .00027622 00000-0 30783-3 0 9994 2 42723 51.6387 284.9117 0005231 184.5298 175.5650 15.62593983 29461 DUTHsat 1 42724U 98067MD 17334.30088880 .00037622 00000-0 38479-3 0 9996 2 42724 51.6373 284.0173 0004380 175.6416 184.4618 15.64627403 29399 LO-90 1 42725U 98067ME 17334.84177848 .00023355 00000-0 27597-3 0 9996 2 42725 51.6384 283.1365 0004706 191.1082 168.9808 15.61181268 29455 nSIGHT1 1 42726U 98067MF 17334.77919293 .00010443 00000-0 14160-3 0 9993 2 42726 51.6392 284.9763 0005280 201.7283 158.3486 15.58273450 29439 QBITO 1 42728U 98067MH 17334.47957693 .00025165 00000-0 28967-3 0 9995 2 42728 51.6398 284.4833 0002346 175.5850 184.5165 15.61822845 29211 Aalto-2 1 42729U 98067MJ 17334.47808474 .00025403 00000-0 29180-3 0 9991 2 42729 51.6384 284.4606 0002318 174.4584 185.6436 15.61871415 29227 SUSat 1 42730U 98067MK 17334.43190013 .00022893 00000-0 26743-3 0 9994 2 42730 51.6379 284.8969 0002484 174.6766 185.4255 15.61500080 29209 i-INSPIRE II 1 42731U 98067ML 17334.36929284 .00023982 00000-0 26563-3 0 9997 2 42731 51.6368 284.4616 0007165 139.6910 220.4616 15.62826057 29258 PolyITAN-2-SAU 1 42732U 98067MM 17334.40480713 .00025692 00000-0 29295-3 0 9997 2 42732 51.6376 284.7029 0007117 140.8492 219.3018 15.62033578 29256 SNUSAT-1 1 42733U 98067MN 17334.30447074 .00022910 00000-0 26785-3 0 9991 2 42733 51.6379 285.5372 0007117 143.2297 216.9186 15.61456446 29239 ExAlta-1 1 42734U 98067MP 17334.50277544 .00028789 00000-0 31775-3 0 9992 2 42734 51.6369 283.8551 0007575 164.9947 195.1273 15.62802362 29226 Aoxiang-1 1 42735U 98067MQ 17334.85585584 .00019242 00000-0 23388-3 0 9992 2 42735 51.6376 283.2214 0006357 192.0675 168.0168 15.60568569 30682 BeEagleSat 1 42736U 98067MR 17334.45349678 .00019996 00000-0 23859-3 0 9990 2 42736 51.6375 285.0336 0006206 187.7903 172.2995 15.61025833 29311 Atlantis 1 42737U 98067MS 17334.44732557 .00077153 00000-0 60598-3 0 9992 2 42737 051.6341 280.4545 0006048 156.3584 203.7692 15.70806570029260 CAS-4B 1 42759U 17034B 17334.72247306 .00000444 00000-0 41119-4 0 9993 2 42759 43.0181 92.6566 0009149 303.3664 164.2383 15.09120546 25465 CAS-4A 1 42761U 17034D 17334.78409125 .00000418 00000-0 39407-4 0 9999 2 42761 43.0181 92.2150 0009507 305.8477 182.1000 15.09195764 25469 UCLSat 1 42765U 17036A 17334.40649593 .00001813 00000-0 84027-4 0 9997 2 42765 097.4300 032.2029 0013327 057.7760 302.4765 15.21296177025077 NIUSat 1 42766U 17036B 17334.87147821 .00001477 00000-0 71667-4 0 9998 2 42766 97.4301 32.3530 0017208 42.1912 318.0643 15.19946930 24406 LituanicaSAT 2 1 42768U 17036D 17334.38054877 .00003145 00000-0 14657-3 0 9993 2 42768 097.4311 031.9383 0017150 047.0304 313.2366 15.20502648024343 InflateSail 1 42770U 17036F 17245.93730135 .99999999 00000-0 73960-1 0 9995 2 42770 097.4262 306.2162 0014869 278.7167 080.9844 16.07641391010932 Aalto 1 1 42775U 17036L 17334.75595085 .00001261 00000-0 60926-4 0 9991 2 42775 97.4299 32.3499 0015448 43.9262 316.3198 15.20370150 24343 URSA MAIOR 1 42776U 17036M 17334.22480220 .00001373 00000-0 65963-4 0 9998 2 42776 097.4303 031.8433 0015332 045.9450 314.3045 15.20427876024263 Max Valier Sat 1 42778U 17036P 17334.24841144 .00001565 00000-0 73843-4 0 9997 2 42778 097.4321 031.9974 0013947 051.5424 308.7060 15.20867230024266 Pegasus 1 42784U 17036V 17334.61854760 .00001732 00000-0 80761-4 0 9996 2 42784 097.4302 032.3831 0013856 056.8600 303.3963 15.21141284024327 NUDATSat 1 42787U 17036Y 17334.59720029 .00002600 00000-0 11844-3 0 9996 2 42787 097.4310 032.4123 0013434 057.4594 302.7937 15.21493801024166 SUCHAI 1 1 42788U 17036Z 17334.40789370 .00002072 00000-0 95473-4 0 9995 2 42788 097.4308 032.2044 0013489 057.9637 302.2907 15.21324594024363 SKCUBE 1 42789U 17036AA 17334.60236738 .00001940 00000-0 89583-4 0 9991 2 42789 097.4301 032.4007 0013310 057.1536 303.0980 15.21328200024314 VZLUSAT 1 1 42790U 17036AB 17334.39294426 .00002501 00000-0 11397-3 0 9998 2 42790 097.4307 032.2186 0013009 058.5777 301.6729 15.21528824024280 VENTA 1 1 42791U 17036AC 17334.32924016 .00001996 00000-0 91899-4 0 9990 2 42791 097.4301 032.1533 0012958 058.7273 301.5230 15.21401006024261 Robusta 1B 1 42792U 17036AD 17334.39159851 .00001986 00000-0 91323-4 0 9996 2 42792 097.4299 032.2183 0012905 059.0096 301.2405 15.21460664024298 D-SAT 1 42794U 17036AF 17334.70476854 .00000649 00000-0 62485-4 0 9990 2 42794 97.6220 31.5449 0126453 221.9362 137.2120 14.90721395 24155 BIRD-J 1 42820U 98067MU 17334.29095023 .00020825 00000-0 25550-3 0 9991 2 42820 051.6376 286.9483 0004054 118.6990 241.4412 15.60276941022758 BIRD-G 1 42821U 98067MV 17334.30014689 .00019959 00000-0 24697-3 0 9990 2 42821 051.6375 287.0098 0003961 121.6485 238.4895 15.60083541022732 BIRD-M 1 42822U 98067MW 17334.36351941 .00020567 00000-0 25366-3 0 9993 2 42822 051.6377 286.6841 0003938 123.3910 236.7461 15.60147817022740 BIRD-B 1 42823U 98067MX 17334.30131954 .00020198 00000-0 24907-3 0 9998 2 42823 051.6382 287.0240 0006346 149.1696 210.9671 15.60152872022731 BIRD-N 1 42824U 98067MY 17334.30791277 .00019741 00000-0 24449-3 0 9992 2 42824 051.6389 287.0717 0006212 149.3866 210.7491 15.60057168022731 TechnoSat 1 42829U 17042E 17334.82117846 .00000373 00000-0 43413-4 0 9996 2 42829 97.6077 239.4735 0015258 134.8067 225.4395 14.90729056 20786 Mayak 1 42830U 17042F 17334.80947983 .00001091 00000-0 11564-3 0 9998 2 42830 97.6084 239.4997 0015323 132.2128 228.0394 14.90984403 20775 OBJECT MZ 1 42910U 98067MZ 17334.33589782 .00016517 00000-0 21672-3 0 9990 2 42910 51.6371 287.9889 0006673 174.1531 185.9541 15.58663560 16315 OBJECT NA 1 42911U 98067NA 17334.84310865 .00018577 00000-0 24038-3 0 9998 2 42911 51.6381 285.3938 0006336 169.3487 190.7641 15.58940641 16375 OBJECT NB 1 42912U 98067NB 17334.85782831 .00018154 00000-0 23763-3 0 9991 2 42912 51.6374 285.4604 0005409 181.5783 178.5193 15.58656317 16396 OBJECT NC 1 42913U 98067NC 17334.34222410 .00029529 00000-0 35286-3 0 9999 2 42913 51.6372 287.2833 0004036 177.5528 182.5486 15.60750131 16286 OBJECT ND 1 42914U 98067ND 17334.54479236 .00016783 00000-0 22212-3 0 9995 2 42914 051.6382 287.1470 0005514 174.1259 185.9799 15.58426277016316 QIKCOM-1 1 42983U 98067NF 17334.83817503 .00004280 00000-0 70178-4 0 9990 2 42983 51.6435 287.4187 0004872 163.9365 284.7281 15.54803798 5347 AO-91 1 43017U 17073E 17334.36737530 .00000619 00000-0 54548-4 0 9991 2 43017 97.6916 269.0016 0260197 198.4864 160.6759 14.77781674 1742 EcAMSat 1 43019U 98067NG 17334.24964614 .00006730 00000-0 10580-3 0 9994 2 43019 51.6401 290.4300 0005649 144.7719 215.3646 15.54910613 87570 /EX
